DLH8185 EDDM-EGLL

Flight info

Callsign DLH8185
Flight time N/A
Altitude 34000
Route GIVMI6Q/08L GIVMI Y101 INBED DCT REKDI DCT LOHRE DCT ADKUV DCT DENUT L608 LOGAN
Aircraft A320/M-SDE3FGHIRWY/LB1

Departure

Time N/A
Airport Munich Airport (EDDM)

Arrival

Time 2026-04-30 14:14
Airport London Heathrow Airport (EGLL)
Time Latitude Longitude Altitude Speed Heading
2026-04-30 14:10 51.47719 -0.70332 2640 ft 142 kts 92°
2026-04-30 14:10 51.47735 -0.68851 2481 ft 141 kts 93°
2026-04-30 14:11 51.47741 -0.67279 2313 ft 141 kts 93°
2026-04-30 14:11 51.47741 -0.65714 2140 ft 140 kts 93°
2026-04-30 14:11 51.47739 -0.64149 1965 ft 140 kts 92°
2026-04-30 14:11 51.47738 -0.62608 1787 ft 140 kts 92°
2026-04-30 14:12 51.47736 -0.61043 1597 ft 139 kts 91°
2026-04-30 14:12 51.47736 -0.59499 1410 ft 139 kts 91°
2026-04-30 14:12 51.47736 -0.57953 1227 ft 138 kts 90°
2026-04-30 14:12 51.47737 -0.56405 1041 ft 138 kts 90°
2026-04-30 14:13 51.47742 -0.54867 862 ft 137 kts 91°
2026-04-30 14:13 51.47745 -0.53354 687 ft 137 kts 90°
2026-04-30 14:13 51.47746 -0.51812 508 ft 137 kts 89°
2026-04-30 14:13 51.47736 -0.50309 329 ft 134 kts 89°
2026-04-30 14:14 51.47748 -0.48829 171 ft 130 kts 89°
2026-04-30 14:14 51.47750 -0.47420 97 ft 118 kts 90°
2026-04-30 14:14 51.47757 -0.46283 84 ft 78 kts 88°
2026-04-30 14:14 51.47758 -0.45672 84 ft 38 kts 90°
2026-04-30 14:15 51.47761 -0.45338 88 ft 22 kts 89°
2026-04-30 14:15 51.47724 -0.45193 91 ft 13 kts 149°
2026-04-30 14:15 51.47678 -0.45176 91 ft 0 kts 176°
2026-04-30 14:16 51.47665 -0.45175 91 ft 4 kts 179°
2026-04-30 14:16 51.47607 -0.45190 91 ft 11 kts 228°
2026-04-30 14:16 51.47596 -0.45352 89 ft 16 kts 269°
2026-04-30 14:16 51.47596 -0.45554 86 ft 19 kts 269°
2026-04-30 14:17 51.47595 -0.45761 85 ft 16 kts 269°
2026-04-30 14:17 51.47595 -0.45965 83 ft 18 kts 269°
2026-04-30 14:17 51.47568 -0.46081 83 ft 6 kts 200°
2026-04-30 14:17 51.47523 -0.46122 83 ft 9 kts 239°
2026-04-30 14:18 51.47484 -0.46182 82 ft 6 kts 179°
2026-04-30 14:18 51.47444 -0.46158 83 ft 4 kts 183°
2026-04-30 14:18 51.47393 -0.46245 84 ft 3 kts 234°
2026-04-30 14:19 51.47387 -0.46258 83 ft 0 kts 234°